TimeCDT,TemperatureF,Dew PointF,Humidity,Sea Level PressureIn,VisibilityMPH,Wind Direction,Wind SpeedMPH,Gust SpeedMPH,PrecipitationIn,Events,Conditions,WindDirDegrees,DateUTC
12:53 AM,78.1,66.0,66,29.76,10.0,SW,11.5,-,N/A,,Clear,230,2013-07-19 05:53:00
1:53 AM,77.0,66.0,69,29.73,10.0,SW,10.4,-,N/A,,Partly Cloudy,230,2013-07-19 06:53:00
2:53 AM,77.0,66.0,69,29.69,10.0,SW,12.7,-,N/A,,Clear,230,2013-07-19 07:53:00
3:53 AM,77.0,66.0,69,29.68,10.0,WSW,12.7,24.2,N/A,,Mostly Cloudy,240,2013-07-19 08:53:00
4:53 AM,75.9,66.9,74,29.68,10.0,WSW,15.0,21.9,0.00,,Mostly Cloudy,250,2013-07-19 09:53:00
5:32 AM,73.4,68.0,83,29.72,10.0,WSW,9.2,-,0.00,Thunderstorm,Overcast,240,2013-07-19 10:32:00
5:53 AM,73.0,68.0,84,29.69,10.0,WSW,8.1,17.3,0.00,,Mostly Cloudy,240,2013-07-19 10:53:00
6:53 AM,73.0,69.1,87,29.70,10.0,WSW,9.2,-,N/A,,Overcast,240,2013-07-19 11:53:00
7:46 AM,75.2,69.8,83,29.74,10.0,West,12.7,-,N/A,,Mostly Cloudy,260,2013-07-19 12:46:00
7:53 AM,75.9,69.1,79,29.71,10.0,WSW,15.0,20.7,N/A,,Scattered Clouds,250,2013-07-19 12:53:00
8:53 AM,79.0,69.1,72,29.70,10.0,West,13.8,21.9,N/A,,Partly Cloudy,260,2013-07-19 13:53:00
9:53 AM,81.0,66.9,62,29.69,10.0,West,13.8,26.5,N/A,,Mostly Cloudy,260,2013-07-19 14:53:00
10:53 AM,84.0,64.0,51,29.69,10.0,West,16.1,26.5,N/A,,Partly Cloudy,270,2013-07-19 15:53:00
11:53 AM,84.9,60.1,43,29.70,10.0,WNW,16.1,24.2,N/A,,Partly Cloudy,290,2013-07-19 16:53:00
12:53 PM,78.1,63.0,60,29.73,10.0,NNW,11.5,26.5,N/A,,Unknown,330,2013-07-19 17:53:00
1:53 PM,81.0,60.1,49,29.75,10.0,WNW,12.7,-,N/A,,Scattered Clouds,300,2013-07-19 18:53:00
2:53 PM,80.1,59.0,48,29.75,10.0,NNW,12.7,19.6,N/A,,Mostly Cloudy,330,2013-07-19 19:53:00
3:53 PM,82.0,59.0,45,29.75,10.0,NW,11.5,23.0,N/A,,Scattered Clouds,310,2013-07-19 20:53:00
4:53 PM,80.1,54.0,40,29.77,10.0,WNW,12.7,19.6,N/A,,Clear,300,2013-07-19 21:53:00
5:53 PM,78.1,54.0,43,29.78,10.0,NW,11.5,20.7,N/A,,Partly Cloudy,310,2013-07-19 22:53:00
6:53 PM,77.0,54.0,45,29.79,10.0,NW,4.6,-,N/A,,Partly Cloudy,310,2013-07-19 23:53:00
7:53 PM,73.0,55.9,55,29.80,10.0,WNW,3.5,-,N/A,,Partly Cloudy,300,2013-07-20 00:53:00
8:53 PM,70.0,55.9,61,29.81,10.0,Calm,Calm,-,N/A,,Clear,0,2013-07-20 01:53:00
9:53 PM,63.0,55.9,78,29.82,10.0,Calm,Calm,-,N/A,,Clear,0,2013-07-20 02:53:00
10:53 PM,57.0,54.0,89,29.84,10.0,West,4.6,-,N/A,,Clear,260,2013-07-20 03:53:00
11:53 PM,59.0,55.0,87,29.84,10.0,West,5.8,-,N/A,,Clear,260,2013-07-20 04:53:00